Flag for U.S.A. Weather past 2 weeks in Fort Collins, Colorado, U.S.A.

Now
63 °F

Clear.


Feels Like: 63 °F
Forecast: 54 / 87 °F
Wind: 3 mph from Northeast

Location: Fort Collins-Loveland Municipal Airport

Current Time: Sep 17, 2014 at 11:46:07 PM

Latest Report: Sep 17, 2014 at 11:15 PM


Visibility: 10 mi

Pressure: 30.07 "Hg

Humidity: 56%

Dew point: 46 °F

Location of Fort CollinsLocation

Historic Weather in Fort Collins — Graph

°F

Fort Collins temperature yesterday

Maximum temperature yesterday: 90 °F (at 3:15 PM)
Minimum temperature yesterday: 46 °F (at 6:55 AM)
Average temperature yesterday: 68 °F

Past Weeks' High & Low Weather Summary

 TemperatureHumidityPressure
High95 °F (Sep 3, 2:55 PM)94% (Sep 5, 8:15 PM)30.52 "Hg (Sep 5, 8:15 PM)
Low32 °F (Sep 13, 6:15 AM)12% (Sep 3, 2:55 PM)29.76 "Hg (Sep 3, 5:15 PM)
Average60 °F63%30.15 "Hg
* Reported Sep 2 10:15 PM — Sep 17 10:55 PM, Fort Collins, Weather by CustomWeather, © 2014

Note: Actual official high and low records may vary slightly from our data, if they occured in-between our weather recording intervals... More about our weather records

Advertising

Fort Collins weather history for previous 24 hours

 ConditionsComfort  
Time TempWeatherWind HumidityBarometerVisibility
10:55 PM
Sep 17
64 °FClear.No wind52%30.07 "Hg10 mi
10:35 PM64 °FClear.No wind52%30.07 "Hg10 mi
10:15 PM64 °FClear.No wind52%30.07 "Hg10 mi
9:55 PM66 °FClear.3 mph49%30.06 "Hg10 mi
9:35 PM66 °FClear.No wind49%30.06 "Hg10 mi
9:15 PM66 °FClear.No wind52%30.05 "Hg10 mi
8:55 PM66 °FClear.No wind52%30.05 "Hg10 mi
8:35 PM66 °FClear.3 mph52%30.05 "Hg10 mi
8:15 PM66 °FClear.7 mph56%30.05 "Hg10 mi
7:55 PM66 °FSunny.6 mph56%30.05 "Hg10 mi
7:35 PM70 °FSunny.5 mph43%30.04 "Hg10 mi
7:15 PM72 °FSunny.No wind41%30.04 "Hg10 mi
6:55 PM73 °FSunny.7 mph38%30.04 "Hg10 mi
6:35 PM73 °FSunny.7 mph41%30.04 "Hg10 mi
6:15 PM70 °FPassing clouds.7 mph50%30.04 "Hg10 mi
5:55 PM79 °FPartly sunny.13 mph30%30.04 "Hg10 mi
5:35 PM79 °FPassing clouds.3 mph28%30.03 "Hg10 mi
5:15 PM81 °FScattered clouds.13 mph26%30.00 "Hg10 mi
4:55 PM84 °FPassing clouds.16 mph22%29.99 "Hg10 mi
4:35 PM86 °FSunny.6 mph19%29.97 "Hg10 mi
4:15 PM88 °FSunny.7 mph18%29.97 "Hg10 mi
3:55 PM88 °FSunny.6 mph18%29.97 "Hg10 mi
3:35 PM88 °FSunny.3 mph18%29.97 "Hg10 mi
3:15 PM90 °FSunny.7 mph18%29.98 "Hg3 mi
2:55 PM90 °FSunny.8 mph18%29.98 "Hg3 mi
2:35 PM90 °FSunny.3 mph20%29.99 "Hg4 mi
2:15 PM90 °FSunny.6 mph20%30.00 "Hg3 mi
1:55 PM88 °FSunny.6 mph19%30.01 "Hg4 mi
1:35 PM88 °FSunny.12 mph21%30.02 "Hg3 mi
12:55 PM86 °FSunny.10 mph25%30.04 "Hg4 mi
12:35 PM84 °FSunny.9 mph29%30.05 "Hg4 mi
11:55 AM82 °FSunny.5 mph30%30.07 "Hg8 mi
11:35 AM79 °FSunny.7 mph30%30.08 "Hg10 mi
11:15 AM79 °FSunny.6 mph30%30.08 "Hg10 mi
10:55 AM73 °FSunny.5 mph33%30.08 "Hg10 mi
10:35 AM72 °FSunny.3 mph36%30.09 "Hg10 mi
10:15 AM72 °FSunny.3 mph38%30.09 "Hg10 mi
9:55 AM73 °FSunny.5 mph33%30.09 "Hg10 mi
9:35 AM70 °FSunny.No wind40%30.10 "Hg10 mi
9:15 AM66 °FSunny.No wind49%30.10 "Hg10 mi
8:55 AM64 °FSunny.No wind49%30.10 "Hg10 mi
8:35 AM63 °FSunny.No wind52%30.10 "Hg10 mi
8:15 AM63 °FSunny.No wind52%30.10 "Hg10 mi
7:55 AM59 °FSunny.3 mph59%30.10 "Hg10 mi
7:35 AM57 °FClear.5 mph63%30.10 "Hg10 mi
6:55 AM57 °FClear.3 mph59%30.08 "Hg10 mi
6:35 AM55 °FClear.No wind63%30.07 "Hg10 mi
5:55 AM55 °FClear.5 mph72%30.08 "Hg10 mi
5:35 AM54 °FClear.6 mph67%30.07 "Hg10 mi
5:15 AM55 °FClear.No wind63%30.07 "Hg10 mi
4:55 AM55 °FClear.No wind63%30.07 "Hg10 mi
4:35 AM52 °FClear.5 mph72%30.07 "Hg10 mi
4:15 AM54 °FClear.6 mph67%30.07 "Hg10 mi
3:55 AM55 °FClear.3 mph63%30.07 "Hg10 mi
3:35 AM55 °FClear.5 mph63%30.07 "Hg10 mi
2:55 AM55 °FClear.3 mph59%30.08 "Hg10 mi
2:35 AM55 °FClear.7 mph63%30.09 "Hg10 mi
2:15 AM57 °FClear.9 mph59%30.09 "Hg10 mi
1:55 AM57 °FClear.9 mph63%30.10 "Hg10 mi
1:35 AM57 °FClear.5 mph63%30.10 "Hg10 mi
1:15 AM57 °FClear.6 mph59%30.10 "Hg10 mi
12:55 AM61 °FClear.No wind52%30.09 "Hg10 mi
12:35 AM63 °FClear.5 mph49%30.09 "Hg10 mi
11:55 PM
Sep 16
66 °FClear.3 mph37%30.10 "Hg10 mi
11:35 PM66 °FClear.3 mph37%30.11 "Hg10 mi
11:15 PM66 °FClear.No wind37%30.11 "Hg10 mi
Weather by CustomWeather, © 2014

See weather overviewHow to use our weather pages